Retour au catalogue

RASSVET-3 22

ActifPO
NORAD 100088·PAYLOAD·🇷🇺 Russia

Lancé Jul 19, 2026 depuis Plesetsk Cosmodrome

Loading…

Prochains Passages (prochaines 24 heures)

TLE

FraisSource: Space-Track

Époque: Sep 14, 2026, 13:29 UTC

1 A0088U 26165F   26257.56190566 -.00275143  00000-0 -55265-2 0  9995
2 A0088  82.2997 168.1463 0007503 167.2989 192.8451 15.47632033  8924

Suivez RASSVET-3 22 en temps réel avec AllMySat

Download on the App Store